User: anonymous   Login
Location: Unspecified
(42.1900°N, 71.3291°W)
Time: 20:57:48
(UTC-04:00)
Language:

Resurs 1-4 Rocket - Orbit

View from above orbital plane
View from above orbital plane
View from above satellite
View from above satellite

Ground track
Ground track

The orbit data is extracted from the following two-line orbital elements,

1 25400U 98043G   18109.82453118 -.00000001 +00000-0 +17718-4 0  9996
2 25400 098.5285 053.8803 0010892 116.2234 244.0067 14.25433044028526
Epoch (UTC): 19 April 2018 19:47:19
Eccentricity: 0.0010892
inclination: 98.5285°
perigee height: 799 km
apogee height: 815 km
right ascension of ascending node: 53.8803°
argument of perigee: 116.2234°
revolutions per day: 14.25433044
mean anomaly at epoch: 244.0067°
orbit number at epoch: 2852

The dashed part of the orbit path shows where the satellite is in the earth's shadow,  

DLR